Location: Trefilan
(52.1833°N, 4.1333°W)
Time: 08:53:33
(UTC+00:00)

Daily predictions for brighter satellites

Satellite Brightness Start Highest point End
(mag) Time Altitude Azimuth Time Altitude Azimuth Time Altitude Azimuth
USA 267 3.4 17:10:37 10° ENE 17:17:10 70° SE 17:23:41 10° SW
Cosmos 1726 Rocket 4.5 17:17:10 10° NNW 17:21:26 54° W 17:25:39 10° S
Cosmos 494 Rocket 4.2 17:16:46 10° NNW 17:21:45 48° ENE 17:26:42 10° SE
CZ-4C R/B 3.0 17:16:48 10° NW 17:23:46 88° NE 17:31:53 10° SE
NOSS 0 Rocket 3.9 17:22:11 10° NNW 17:28:27 70° NE 17:34:38 10° SE
Cosmos 2298 Rocket 4.2 17:23:17 10° S 17:28:30 60° ESE 17:33:44 10° NNE
Starlink AQ 3.8 17:27:02 10° SW 17:29:46 35° SSE 17:32:31 10° E
Starlink AS 3.7 17:27:44 10° SW 17:30:27 35° SSE 17:33:10 10° E
Starlink BA 3.7 17:28:00 10° SW 17:30:44 35° SSE 17:33:27 10° E
Starlink AU 3.7 17:28:14 10° SW 17:30:57 35° SSE 17:33:40 10° E
Nadezhda 3 Rocket 4.1 17:24:53 10° N 17:31:04 56° ENE 17:37:17 10° SSE
Starlink AT 3.7 17:28:27 10° SW 17:31:10 35° SSE 17:33:53 10° E
Starlink BB 3.7 17:28:40 10° SW 17:31:23 35° SSE 17:34:06 10° E
Starlink BC 3.7 17:28:53 10° SW 17:31:36 36° SSE 17:34:19 10° E
Starlink BK 3.7 17:29:07 10° SW 17:31:50 36° SSE 17:34:32 10° E
Starlink AY 3.7 17:29:20 10° SW 17:32:03 36° SSE 17:34:45 10° E
CZ-4 R/B 2.4 17:28:43 10° ESE 17:32:08 26° ENE 17:35:38 10° N
Starlink AW 3.7 17:29:34 10° SW 17:32:16 36° SSE 17:34:58 10° E
Starlink BJ 3.7 17:29:47 10° SW 17:32:31 36° SSE 17:35:12 10° E
Starlink AV 3.7 17:29:59 10° SW 17:32:43 36° SSE 17:35:23 10° E
Starlink BD 3.7 17:30:13 10° SW 17:32:57 36° SSE 17:35:37 11° E
Starlink BE 3.7 17:30:26 10° SW 17:33:11 37° SSE 17:35:51 11° E
Starlink BM 3.7 17:30:40 10° SW 17:33:24 37° SSE 17:36:03 11° E
Cosmos 1626 Rocket 3.9 17:29:23 10° SSE 17:33:27 42° E 17:37:32 10° NNE
Starlink AX 3.7 17:30:53 10° SW 17:33:37 37° SSE 17:36:16 11° E
Starlink BH 3.7 17:31:07 10° SW 17:33:51 37° SSE 17:36:29 11° E
NOSS 2-1 (C) 4.3 17:29:20 10° NW 17:33:59 53° NE 17:40:24 10° ESE
Starlink AZ 3.7 17:31:20 10° SW 17:34:04 37° SSE 17:36:42 11° E
Starlink BG 3.7 17:31:33 10° SW 17:34:18 37° SSE 17:36:55 11° E
Starlink BF 3.6 17:31:48 10° SW 17:34:32 37° SSE 17:37:08 11° E
Starlink BL 3.6 17:31:59 10° SW 17:34:44 37° SSE 17:37:22 11° E
Starlink AH 3.6 17:32:14 10° SW 17:34:58 37° SSE 17:37:34 11° E
Starlink AC 3.6 17:32:28 10° SW 17:35:12 37° SSE 17:37:48 11° E
Starlink X 3.6 17:32:41 10° SW 17:35:25 38° SSE 17:38:00 11° E
Starlink AE 3.6 17:32:51 10° SW 17:35:37 38° SSE 17:38:14 11° E
Starlink Z 3.6 17:33:07 10° SW 17:35:52 38° SSE 17:38:26 11° E
Starlink AK 3.6 17:33:20 10° SW 17:36:05 38° SSE 17:38:39 11° E
Okean-O 2.8 17:31:57 10° SE 17:36:15 52° ENE 17:40:35 10° N
Starlink AL 3.6 17:33:34 10° SW 17:36:20 38° SSE 17:38:53 11° E
Starlink AD 3.6 17:33:47 10° SW 17:36:32 38° SSE 17:39:04 12° E
Starlink Y 3.6 17:34:13 10° SW 17:36:59 38° SSE 17:39:30 12° E
Okean O Rocket 3.3 17:32:52 10° SSW 17:37:01 38° W 17:41:13 10° NNW
Starlink AG 3.6 17:34:28 10° SW 17:37:13 39° SSE 17:39:45 12° E
Starlink W 3.6 17:34:38 10° SW 17:37:25 39° SSE 17:39:58 12° E
Starlink AJ 3.6 17:34:54 10° SW 17:37:39 39° SSE 17:40:10 12° E
NOSS 2-1 (D) 4.3 17:33:07 10° NW 17:37:49 56° NE 17:44:19 10° ESE
Starlink AM 3.6 17:35:18 10° SW 17:38:04 39° SSE 17:40:33 12° E
Cosmos 1726 4.5 17:35:02 10° NNW 17:38:10 27° W 17:41:15 10° SSW
Starlink AP 3.6 17:35:34 10° SW 17:38:19 39° SSE 17:40:49 12° E
Starlink AA 3.6 17:35:47 10° SW 17:38:33 39° SSE 17:41:01 12° E
Starlink AF 3.5 17:35:56 10° SW 17:38:42 39° SSE 17:41:10 12° E
Starlink AB 3.5 17:36:14 10° SW 17:39:00 40° SSE 17:41:28 12° E
Starlink AN 3.5 17:36:27 10° SW 17:39:14 40° SSE 17:41:41 12° E
Cosmos 1674 3.0 17:36:16 10° SSW 17:39:58 67° WNW 17:43:41 10° N
Cosmos 2082 Rocket 4.2 17:36:23 10° WNW 17:40:05 17° NNW 17:43:47 10° NNE
H-2A R/B 3.7 17:43:38 11° ENE 17:44:45 12° NE 17:46:38 10° NNE
Cosmos 2237 Rocket 2.2 17:41:52 10° NNW 17:47:29 64° NE 17:53:04 10° SE
ATLAS CENTAUR R/B 3.8 17:42:22 10° SW 17:47:40 82° SE 18:01:48 12° ENE
Cosmos 1300 2.6 17:44:37 10° N 17:48:28 78° ENE 17:52:18 10° SSE
Timation 2 Rocket 4.1 17:43:38 10° SSW 17:49:38 61° ESE 17:55:56 10° NE
Cosmos 2333 Rocket 3.1 17:45:00 10° NW 17:50:36 55° WSW 17:56:07 10° S
Starlink T 3.3 17:47:53 10° SW 17:50:46 47° SSE 17:52:52 16° E
Cosmos 1242 Rocket 2.5 17:47:37 10° S 17:51:05 62° E 17:54:38 10° NNE
CZ-2D R/B 4.4 17:48:16 10° ESE 17:51:19 23° ENE 17:54:24 10° N
COSMOS 2487 4.5 17:49:03 10° WSW 17:52:00 25° NW 17:54:57 10° N
Starlink N 3.3 17:49:13 10° SW 17:52:07 48° SSE 17:54:10 17° E
SJ 16-02 3.1 17:48:34 10° WSW 17:52:26 29° NW 17:56:21 10° N
COBE Rocket 4.4 17:47:26 10° N 17:52:32 69° WNW 17:57:40 10° SSW
Cosmos 1607 4.0 17:47:23 10° SSW 17:53:26 67° SE 17:59:20 11° NE
Starlink Q 3.2 17:50:51 10° SW 17:53:45 49° SSE 17:55:45 18° E
USA 234 4.5 17:48:01 10° SSE 17:54:12 44° SW 18:00:25 10° WNW
Starlink P 3.2 17:52:18 10° SW 17:55:12 50° SSE 17:57:09 18° E
Starlink U 3.2 17:53:44 10° SW 17:56:39 51° SSE 17:58:33 19° E
Starlink B 3.2 17:55:12 10° SW 17:58:07 52° SSE 17:59:58 20° E
USA 32 4.5 17:53:20 10° SSE 17:58:09 39° E 18:02:59 10° NNE
Cosmos 2341 Rocket 4.4 17:52:37 10° SSE 17:58:30 41° E 18:04:23 10° NNE
Cosmos 2150 Rocket 4.0 17:56:12 10° SSW 18:01:21 86° WNW 18:06:33 10° NNE
YAOGAN 6 2.5 17:58:46 10° SSE 18:02:27 71° ENE 18:06:07 10° N
Cosmos 1626 2.0 17:59:05 10° S 18:02:46 74° E 18:06:30 10° NNE
Cosmos 1455 3.1 18:00:34 10° N 18:03:55 28° ENE 18:07:13 10° SE
CSL-04 Rocket 3.9 17:59:08 10° SE 18:04:23 48° ENE 18:09:43 10° N
Starlink D 3.0 18:02:05 10° WSW 18:05:03 57° SSE 18:06:40 23° E
Meteor 1-24 Rocket 3.7 18:00:11 10° SSW 18:05:30 80° WNW 18:10:59 10° NNE
Starlink S 3.0 18:03:36 10° WSW 18:06:35 59° SSE 18:08:09 24° E
SKYMED 2 4.0 18:03:09 10° NNE 18:07:18 42° E 18:11:26 10° S
Cosmos 1340 Rocket 2.8 18:03:42 10° NNW 18:07:41 85° WSW 18:11:39 10° S
Starlink C 3.0 18:05:06 10° WSW 18:08:04 60° SSE 18:09:35 25° E
ATLAS 5 CENTAUR R/B 2.4 18:03:50 10° WSW 18:08:07 48° NNW 18:12:19 14° NE
NOAA 12 4.4 18:03:35 10° S 18:08:48 71° WSW 18:14:04 10° NNW
SL-16 R/B 2.6 18:03:28 10° NNW 18:08:54 43° NE 18:14:16 10° ESE
Cosmos 1271 Rocket 3.0 18:05:41 10° SSW 18:09:24 65° WNW 18:13:10 10° N
Starlink E 3.0 18:06:38 10° WSW 18:09:38 61° SSE 18:11:05 26° E
Starlink J 2.9 18:08:11 10° WSW 18:11:11 62° SSE 18:12:35 27° E
Starlink V 2.9 18:09:42 10° WSW 18:12:42 63° SSE 18:14:03 28° E
Starlink H 2.9 18:11:16 10° WSW 18:14:16 64° SSE 18:15:34 30° E
Cosmos 1125 Rocket 3.4 18:09:20 10° SSW 18:14:30 74° ESE 18:19:44 10° NNE
SL-14 R/B 3.4 18:11:02 10° SSW 18:15:01 76° W 18:19:01 10° N
Starlink F 2.9 18:12:50 10° WSW 18:15:51 66° SSE 18:17:05 31° E
Starlink G 2.9 18:14:23 10° WSW 18:17:23 67° SSE 18:18:35 32° E
Cosmos 2219 3.5 18:12:24 10° S 18:17:43 46° ESE 18:21:51 16° NE
Cosmos 1812 Rocket 3.9 18:13:55 10° NNW 18:18:23 71° W 18:22:50 10° S
Starlink L 2.8 18:15:56 10° WSW 18:18:57 68° SSE 18:20:05 34° E
Starlink A 2.8 18:17:31 10° WSW 18:20:32 69° SSE 18:21:36 35° E
Starlink R 2.8 18:19:06 10° WSW 18:22:07 70° SSE 18:23:08 37° E
Starlink AR 2.3 18:20:37 10° WSW 18:23:10 73° SSE 18:23:40 51° E
Starlink K 2.8 18:20:38 10° WSW 18:23:39 72° SSE 18:24:38 39° E
NOSS 2-1 (E) 4.3 18:19:28 10° NW 18:24:34 86° NE 18:31:43 10° SE
Envisat 3.7 18:20:12 10° S 18:25:11 56° W 18:30:13 10° NNW
Starlink M 2.8 18:22:10 10° WSW 18:25:12 73° SSE 18:26:06 41° E
FengYun 1-2 T 4.4 18:20:11 10° SSE 18:25:49 79° WSW 18:31:32 10° NNW
ATLAS 5 CENTAUR R/B 3.2 18:25:05 10° NW 18:28:29 43° NNE 18:33:50 20° E
Cosmos 1980 4.1 18:24:08 10° NW 18:29:47 67° WSW 18:35:26 10° SSE
YAOGAN 1 2.4 18:25:38 10° SSE 18:29:56 73° ENE 18:34:17 10° N
Cosmos 2218 Rocket 4.3 18:24:10 10° SSE 18:30:05 43° E 18:36:05 10° NNE
Cosmos-2242 2.9 18:25:51 10° N 18:30:11 67° ENE 18:34:28 10° SSE
Cosmos 1339 Rocket 4.4 18:24:18 10° N 18:30:20 59° ENE 18:36:22 10° SSE
Cosmos 2297 Rocket 2.6 18:26:09 10° S 18:31:26 42° ESE 18:34:25 23° NE
Cosmos 1269 Rocket 4.4 18:26:19 10° NNW 18:31:34 67° WSW 18:36:48 10° SSE
ADEOS Rocket 3.9 18:26:53 10° NNE 18:32:37 32° E 18:38:52 10° SSE
Cosmos 1939 Rocket 2.7 18:33:31 10° SSE 18:37:22 63° ENE 18:41:20 10° N
Cosmos 2154 Rocket 4.3 18:32:20 10° SSW 18:38:36 72° WNW 18:44:52 10° N
Cosmos 2219 Rocket 4.4 18:34:12 10° NW 18:38:55 27° WSW 18:43:34 10° SSW
ERBS 3.4 18:37:38 10° SSW 18:40:26 29° SE 18:40:26 29° SE
Cosmos 2227 Rocket 2.4 18:38:20 10° S 18:43:42 47° ESE 18:46:12 29° NE
NOAA 11 4.1 18:40:01 10° SSE 18:45:31 87° ENE 18:51:03 10° NNW
Cosmos 1959 Rocket 4.4 18:48:11 10° S 18:54:14 60° E 19:00:15 10° NNE
Cosmos 1703 4.1 18:51:25 10° SSE 18:53:59 34° SE 18:53:59 34° SE
COSMO-SKYMED 1 2.8 18:51:09 10° N 18:55:30 70° WNW 18:59:50 10° SSW
Cosmos 1943 4.1 18:52:04 10° NNW 18:56:58 29° NE 18:57:04 29° NE
ATLAS CENTAUR R/B 1.5 18:53:58 10° NW 18:58:01 50° NE 18:58:01 50° NE
ARGOS 3.8 18:59:07 35° NE 18:59:07 35° NE 19:03:32 10° N
USA 267 3.4 18:56:47 30° ENE 19:00:14 67° NNW 19:06:42 10° W
Cosmos 1953 Rocket 3.5 18:56:16 10° S 19:00:43 70° E 19:02:55 30° NNE
Cosmos 1842 Rocket 4.5 18:57:13 10° N 19:00:03 33° NNE 19:00:03 33° NNE
Starlink AQ 3.6 19:01:56 10° W 19:04:12 49° W 19:04:12 49° W
Cosmos 2366 rocket 3.9 18:59:18 10° S 19:05:28 70° E 19:11:44 10° NNE
Starlink AS 3.7 19:02:32 10° W 19:04:44 46° W 19:04:44 46° W
Starlink BA 3.7 19:02:49 10° W 19:05:01 46° W 19:05:01 46° W
Cosmos 1758 Rocket 3.8 19:01:32 10° SSW 19:05:50 67° WNW 19:09:51 12° N
Meteor 2-10 Rocket 3.7 19:00:30 10° NNW 19:05:55 77° W 19:11:06 10° S
Starlink AU 3.7 19:03:02 10° W 19:05:13 46° W 19:05:13 46° W
Starlink AT 3.8 19:03:16 10° W 19:05:26 45° W 19:05:26 45° W
Starlink BB 3.8 19:03:29 10° W 19:05:39 45° W 19:05:39 45° W
Starlink BC 3.8 19:03:41 10° W 19:05:51 45° W 19:05:51 45° W
Starlink BK 3.8 19:03:56 10° W 19:06:05 44° W 19:06:05 44° W
CZ-4 R/B 2.8 19:03:12 10° SSW 19:07:01 39° W 19:10:56 10° NNW
Starlink AY 3.8 19:04:09 10° W 19:06:17 44° W 19:06:17 44° W
Starlink AW 3.8 19:04:23 10° W 19:06:30 44° W 19:06:30 44° W
Starlink BJ 3.9 19:04:37 10° W 19:06:44 43° W 19:06:44 43° W
Starlink AV 3.9 19:04:49 10° W 19:06:56 43° W 19:06:56 43° W
Starlink BD 3.9 19:05:03 10° W 19:07:09 43° W 19:07:09 43° W
Starlink BE 3.9 19:05:16 10° W 19:07:24 43° W 19:07:24 43° W
Ariane Rocket 2.8 19:03:23 10° SSE 19:08:26 71° ENE 19:13:31 10° NNW
Starlink BM 3.9 19:05:30 10° W 19:07:36 42° W 19:07:36 42° W
Starlink AX 3.9 19:05:44 10° W 19:07:48 42° W 19:07:48 42° W
Starlink BH 4.0 19:05:57 10° W 19:08:02 41° W 19:08:02 41° W
Starlink AZ 4.0 19:06:10 10° W 19:08:14 41° W 19:08:14 41° W
Starlink BG 4.0 19:06:24 10° W 19:08:27 41° W 19:08:27 41° W
Starlink BF 4.0 19:06:39 10° W 19:08:41 40° W 19:08:41 40° W
Starlink BL 4.0 19:06:49 10° W 19:08:54 41° W 19:08:54 41° W
Starlink AH 4.0 19:07:05 10° W 19:09:06 40° W 19:09:06 40° W
Starlink AC 4.1 19:07:19 10° W 19:09:20 40° W 19:09:20 40° W
Cosmos 1932 4.5 19:03:58 10° SSW 19:10:15 63° SE 19:12:28 41° ENE
Starlink X 4.1 19:07:32 10° W 19:09:33 39° W 19:09:33 39° W
Starlink AE 4.0 19:07:42 10° W 19:09:47 41° W 19:09:47 41° W
Starlink Z 4.1 19:07:59 10° W 19:09:58 39° W 19:09:58 39° W
Starlink AK 4.1 19:08:13 10° W 19:10:11 39° W 19:10:11 39° W
Starlink AL 4.1 19:08:26 10° W 19:10:25 38° W 19:10:25 38° W
Starlink AD 4.2 19:08:39 10° W 19:10:37 38° W 19:10:37 38° W
Starlink Y 4.2 19:09:06 10° W 19:11:02 37° W 19:11:02 37° W
Starlink AG 4.2 19:09:21 10° W 19:11:17 37° W 19:11:17 37° W
Starlink W 4.2 19:09:31 10° W 19:11:30 38° W 19:11:30 38° W
Starlink AJ 4.2 19:09:46 10° W 19:11:42 37° W 19:11:42 37° W
Starlink AM 4.3 19:10:11 10° W 19:12:05 36° W 19:12:05 36° W
Starlink AP 4.3 19:10:27 10° W 19:12:21 36° W 19:12:21 36° W
Starlink AA 4.3 19:10:41 10° W 19:12:33 36° W 19:12:33 36° W
Starlink AF 4.3 19:10:49 10° W 19:12:41 35° W 19:12:41 35° W
Starlink AB 4.3 19:11:08 10° W 19:13:00 35° W 19:13:00 35° W
Starlink AN 4.3 19:11:21 10° W 19:13:13 35° W 19:13:13 35° W
H-2A R/B 2.4 19:24:14 45° NNE 19:24:14 45° NNE 19:28:06 10° N
Cosmos 1356 Rocket 4.3 19:19:22 10° NNW 19:21:55 38° N 19:21:55 38° N
Cosmos 2082 Rocket 4.4 19:25:10 10° NNW 19:26:43 11° N 19:27:54 10° NNE
Cosmos 1727 Rocket 3.9 19:21:13 10° N 19:27:27 85° W 19:33:37 10° S
Cosmos 2251 Rocket 3.7 19:24:36 10° NNW 19:29:53 72° WSW 19:32:57 26° S
Cosmos 2237 Rocket 4.2 19:26:30 10° NW 19:31:09 27° WSW 19:35:47 10° SSW
Meteor 2-2 Rocket 4.3 19:26:34 10° N 19:32:35 63° ENE 19:32:41 63° E
Meteor 2-12 Rocket 4.3 19:28:24 10° S 19:34:21 65° E 19:34:32 64° E
SJ-11-01 4.2 19:36:07 79° SSW 19:36:22 83° WSW 19:41:09 10° NNW
Meteor 1-27 4.1 19:32:52 10° NNW 19:38:28 90° W 19:40:19 45° S
Cosmos 1455 4.1 19:36:10 10° NNW 19:39:31 29° W 19:42:51 10° SSW
Meteor 1-11 4.0 19:39:08 10° S 19:44:45 85° E 19:44:48 85° E
CZ-2C R/B 3.7 19:48:50 46° N 19:48:50 46° N 19:52:52 10° N
ISS -0.6 19:46:56 10° SW 19:47:01 11° SW 19:47:01 11° SW
SL-16 R/B 3.2 19:47:42 10° NW 19:53:05 44° WSW 19:57:05 17° S
ATLAS 5 CENTAUR R/B 3.5 19:49:58 10° WNW 19:53:52 25° N 19:53:52 25° N
Cosmos 2219 4.2 19:56:39 10° WSW 20:01:58 41° NW 20:03:49 32° N
Cosmos 2082 3.9 19:58:58 10° SW 20:03:48 65° WSW 20:03:48 65° WSW
Cosmos 1603 4.2 19:59:49 10° NNW 20:04:08 53° NNW 20:04:08 53° NNW
BREEZE-M DEB (TANK) 4.2 20:02:42 10° W 20:15:07 64° SW 20:15:07 64° SW
Cosmos 2297 Rocket 3.1 20:10:05 10° WSW 20:15:29 44° NW 20:16:16 42° NNW
ADEOS Rocket 3.6 20:12:11 10° N 20:18:28 63° WNW 20:25:26 10° SSW
NOSS 3-3 (A) 4.4 20:16:38 10° NW 20:23:15 70° N 20:23:15 70° N
NOSS 3-3 (C) 4.4 20:16:44 10° NW 20:23:20 70° N 20:23:20 70° N
Cosmos 2227 Rocket 3.2 20:22:34 10° WSW 20:27:54 41° NW 20:28:04 40° NW
ATLAS CENTAUR R/B 4.3 20:33:21 10° WNW 20:34:14 15° WNW 20:34:14 15° WNW
USA 267 3.8 20:44:07 52° NW 20:44:07 52° NW 20:49:21 10° WNW
H-2A R/B 4.3 21:04:51 20° WNW 21:04:51 20° WNW 21:07:05 10° NW
